Regional Weather Roundup
Issued by NWS Grand Forks, ND

Home | Current Version | Previous Version | Text Only | Print | Product List | Glossary Off
Versions: 1 2 3 4 5 6 7 8 9 10 11 12 13 14 15 16 17 18 19 20 21 22 23 24 25 26 27 28 29 30 31 32 33 34 35 36 37 38 39 40 41 42 43 44 45 46 47 48 49 50

000
ASUS43 KFGF 280231
RWRFGF
PRAIRIE TO PINES  WEATHER ROUNDUP
NATIONAL WEATHER SERVICE EASTERN NORTH DAKOTA/GRAND FORKS ND
900 PM CDT WED JUL 27 2016

 **SATELLITE DATA USED TO AUGMENT SKY COVER AT AUTOMATED STATIONS**
 *****  WEATHER ACROSS EASTERN NORTH DAKOTA  *****

CITY           SKY/WX    TMP DP  RH WIND       PRES   REMARKS
GRAND FORKS    MOCLDY    71  58  63 N12       30.06R
GRAND FRKS AFB PTCLDY    69  58  68 N10       30.08S
GRAND FRKS NWS   N/A     68 N/A N/A N9          N/A
DEVILS LAKE    PTCLDY    65  58  78 NE6       30.12S
FARGO          CLOUDY    71  60  68 N14       30.03R
WAHPETON ARPT  PTCLDY    66  57  72 NW8       30.04S
$$

 ***** WEATHER ACROSS CENTRAL AND WESTERN NORTH DAKOTA  *****

CITY           SKY/WX    TMP DP  RH WIND       PRES   REMARKS
BISMARCK       MOCLDY    72  60  66 E7        30.11R
MINOT          CLOUDY    71  60  68 NE6       30.12S
JAMESTOWN      PTCLDY    67  60  78 N5        30.10R
MINOT AFB      CLOUDY    71  57  61 NE7       30.11S
GARRISON         N/A     69  60  73 E6        30.11F
WILLISTON      MOCLDY    68  58  70 E5        30.13S
DICKINSON      PTCLDY    66  59  78 NE12      30.11R
HETTINGER      CLEAR     71  59  65 NE6       30.13R
$$

 *****  OTHER AIRPORT OBSERVATIONS IN OUR AREA  *****

CITY           SKY/WX    TMP DP  RH WIND       PRES   REMARKS
WALHALLA       FAIR      63  59  88 N7        30.13R
GRAFTON AIRPOR MOCLDY    68  59  73 NW10      30.11R
VALLEY CITY AR FAIR      64  64 100 N5        30.11R
CANDO          FAIR      63  57  82 NE5       30.16R
CAVALIER APRT  FAIR      66  57  72 N8        30.11R
GWINNER        FAIR      64  59  82 N6        30.08R
SHEYENNE NWR     N/A     70  58  66 NW5       29.95
ROLLA          FAIR      59  55  88 NE5       30.16S
 ***** THE ABOVE OBSERVATIONS ARE NON NWS ARE NOT QUALITY
       CONTROLLED AND MAY MIS-REPORT RAIN FOR SNOW...
$$

  *****  WEATHER ACROSS NORTHERN MINNESOTA  *****

CITY           SKY/WX    TMP DP  RH WIND       PRES   REMARKS
FLAG ISLAND    CLEAR     66  55  68 NE13      30.08R
WARROAD        CLEAR     70  59  68 NE9G17    30.08R
ROSEAU         CLOUDY    64  61  88 CALM      30.08R
HALLOCK        PTCLDY    66  61  82 N10       30.08R
THF RVR FALLS  CLOUDY    71  61  70 N8        30.05R
BAUDETTE       CLEAR     68  56  65 N8        30.06R
WASKISH        CLOUDY    70  59  68 NE6       30.04R
CROOKSTON      CLOUDY    70  61  73 N12       30.06R
STEPHEN NDAWN    N/A     68  61  77 NW9         N/A
GREENBUSH NDAW   N/A    N/A N/A N/A NE3         N/A
$$
  *****  WEATHER ACROSS CENTRAL AND WEST MINNESOTA  *****

CITY           SKY/WX    TMP DP  RH WIND       PRES   REMARKS
FOSSTON        CLOUDY    66  61  82 CALM      30.05S
BEMIDJI        CLEAR     66  61  82 CALM      30.04R
PARK RAPIDS    CLOUDY    70  62  76 NE3       30.03R
ELBOW LAKE     FAIR      67  61  82 NW6       30.03S
WADENA         MOCLDY    68  63  83 NE3       30.03R
DETROIT LAKES  PTCLDY    70  63  78 E3        30.05S
MOORHEAD       PTCLDY    70  61  73 N9        30.04R
FERGUS FALLS   CLEAR     64  57  77 NW7       30.04R
MORRIS MN      CLEAR     68  61  77 NW9       30.01S
STAPLES        PTCLDY    66  61  82 CALM      30.03R
$$
  *****  WEATHER ELSEWHERE ACROSS MINNESOTA  *****

CITY           SKY/WX    TMP DP  RH WIND       PRES   REMARKS
DULUTH         CLEAR     61  58  90 SE5       30.03S
INTRNTL FALLS  CLEAR     68  54  60 N7        30.04S
ELY            PTCLDY    63  61  94 CALM      30.04R
CLOQUET        CLEAR     61  57  88 CALM      30.04R
WHEATON        CLEAR     70  63  78 NW6       30.05R
BRAINERD       CLEAR     65  62  90 NE5       30.02R
HIBBING        CLOUDY    64  63  96 CALM      30.03R
ALEXANDRIA     CLOUDY    73  62  68 NW6       30.02R
SAINT CLOUD    PTCLDY    68  64  87 CALM      30.00R
MINNEAPOLIS    CLOUDY    71  64  78 N12       29.95R
$$

  *****  WEATHER ACROSS SOUTH DAKOTA  *****

CITY           SKY/WX    TMP DP  RH WIND       PRES   REMARKS
SIOUX FALLS    CLOUDY    72  64  76 N8        30.03R
BROOKINGS      CLOUDY    69  62  78 N6        30.05R
WATERTOWN      CLOUDY    70  57  63 N3        30.07R
HURON          CLOUDY    74  63  68 N8        30.04R
SISSETON         N/A     67  60  78 N7        30.03S
ABERDEEN       MOCLDY    73  61  65 N7        30.06S
MITCHELL       CLOUDY    76  65  68 NE6       30.03R
PIERRE         CLOUDY    71  62  73 E7        30.03F
MOBRIDGE       CLOUDY    73  60  63 E7        30.07R
RAPID CITY     MOCLDY    72  58  61 E7        30.13R
$$

  *****  SOME WEATHER IN NEARBY STATES *****

CITY           SKY/WX    TMP DP  RH WIND       PRES   REMARKS
GLASGOW MT     LGT RAIN  61  58  90 S13G22    30.12R
GREAT FALLS MT CLEAR     77  51  40 E14       30.13R
CHEYENNE WY    CLEAR     72  58  61 E5        30.22R
SCOTTSBLUFF NE CLEAR     78  55  44 E8        30.11R
OMAHA NE       CLOUDY    77  71  82 NW6       29.95R
DES MOINES IA  PTCLDY    81  67  62 W3        29.94R
DAVENPORT IA   MOCLDY    76  71  85 NE3       29.94R
CHICAGO IL     CLOUDY    80  62  54 SE8       29.94R
EAU CLAIRE WI  CLOUDY    66  66 100 NE6       29.94R
LA CROSSE WI   CLOUDY    77  68  73 SE6       29.90R
$$

  *****  SOME NATIONAL WEATHER *****

CITY           SKY/WX    TMP DP  RH WIND       PRES   REMARKS
LA GUARDIA NY  MOCLDY    82  69  64 SE10      29.91R
RALEIGH NC     PTCLDY    79  69  71 NW3       29.95S
ATLANTA GA     PTCLDY    83  68  60 W10       30.02S
NEW ORLEANS LA MOCLDY    82  73  74 S6        30.01R
OKLAHOMA CITY  MOCLDY    77  72  84 CALM      29.93R
ALBUQUERQUE NM MOCLDY    85  44  23 SE15      30.10S
SALT LAKE CITY CLEAR     98  27   8 NE6       30.02F HX  92
LOS ANGELES CA MOSUNNY   74  66  76 W12       29.87S
BOISE ID       SUNNY     97  39  13 NW13      29.92F HX  92
SEATTLE WA     MOSUNNY   81  59  47 NW10      30.09S
$$

*** WEATHER ACROSS MANITOBA...SASKATCHEWAN AND ONTARIO ***
                ***ONTARIO***

CITY           SKY/WX    TMP DP  RH WIND       PRES   REMARKS
GERALDTON      MOCLDY    64  50  59 N6        30.04R
THUNDER BAY    PTCLDY    66  59  77 NE5       30.02R
SIOUX LOOKOUT  PTCLDY    61  54  77 N5        30.09S
TORONTO        PTCLDY    77  68  73 VRB2      29.92S
BIG TROUT LK   NOT AVBL
PICKLE LAKE    PTCLDY    61  48  63 N7        30.10S
DRYDEN         CLEAR     61  52  72 N8        30.10S
KENORA         PTCLDY    61  52  72 NE6       30.11F
$$
                *** MANITOBA***

CITY           SKY/WX    TMP DP  RH WIND       PRES   REMARKS
BRANDON        MOCLDY    66  54  63 E3        30.14S
DAUPHIN        CLEAR     66  55  68 NE2       30.12F
ISLAND LAKE    MOCLDY    66  55  68 CALM      30.11F
PILOT MOUND      N/A     63  54  72 NE5         N/A
THE PAS        CLOUDY    70  57  64 S9        30.08F
THOMPSON       MOCLDY    70  50  49 S3        30.06F
WINNIPEG       PTCLDY    63  54  72 NE6       30.12R
LYNN LAKE      LGT RAIN  64  57  77 MISG      30.04R
CHURCHILL      PTCLDY    61  50  67 S14       30.03S
GILLAM         MOCLDY    63  48  59 S2        30.07F
$$
                ***SASKATCHEWAN***

CITY           SKY/WX    TMP DP  RH WIND       PRES   REMARKS
ESTEVAN        PTCLDY    66  59  77 E6        30.14S
KINDERSLEY     PTCLDY    70  59  68 SE8       30.14R
LLOYDMINSTER   MOSUNNY   75  59  57 NW3       30.10F
PRINCE ALBERT  PTCLDY    73  57  56 SW8       30.09S
REGINA         MOCLDY    70  55  60 E8        30.14S
YORKTON        CLEAR     68  55  64 NE5       30.14S
N. BATTLEFORD  MOCLDY    75  59  57 S6        30.12S
LA RONGE       MOCLDY    68  57  68 SW2       30.03F
SASKATOON      PTCLDY    73  54  49 S10       30.14F
SWIFT CURRENT  CLEAR     68  54  60 E7        30.16S
$$
NOTE: THESE ARE AUTOMATED STATIONS WITH LIMITED QUALITY CONTROL
      "FAIR" INDICATES FEW OR NO CLOUDS BELOW 12,000 FEET WITH NO
      SIGNIFICANT WEATHER AND/OR OBSTRUCTIONS TO VISIBILITY.
      SKY/WX - SKY CONDITION AND SIGNIFICANT WEATHER.
      TMP - AIR TEMPERATURE.    DP   - DEWPOINT TEMPERATURE.
      RH  - RELATIVE HUMIDITY.  PRES - PRESSURE.
      HX  - HEAT INDEX.         WCI  - WIND CHILL INDEX.
$



USA.gov is the U.S. government's official web portal to all federal, state and local government web resources and services.